Location: Unspecified
(0.0000°N, 0.0000°E)
Time: 20:02:40
(UTC+02:00)

Meteor PRIRODA - Visible Passes

Search period start: 28 May 2015 00:00
Search period end: 07 June 2015 00:00
Orbit: 501 x 525 km, 97.3° (Epoch: 27 May)

Date Brightness Start Highest point End Pass type
(mag) Time Alt. Az. Time Alt. Az. Time Alt. Az.
28 May 6.5 05:38:16 10° ENE 05:40:01 13° E 05:40:27 13° ESE visible
28 May 5.3 07:11:32 10° NW 07:13:57 16° W 07:15:23 13° WSW visible
29 May 4.6 06:55:08 10° NNW 06:58:20 28° W 06:59:38 22° WSW visible
30 May 3.8 06:39:10 10° N 06:42:45 52° W 06:43:52 36° SW visible
31 May 3.6 06:23:29 10° NNE 06:27:10 82° E 06:28:05 49° S visible
01 Jun 4.7 06:08:06 10° NNE 06:11:35 43° E 06:12:18 38° SE visible
02 Jun 5.7 05:53:01 10° NE 05:56:00 24° E 05:56:31 23° ESE visible
03 Jun 6.5 05:38:31 10° ENE 05:40:22 14° E 05:40:45 14° ESE visible
03 Jun 5.4 07:11:55 10° NW 07:14:18 16° W 07:15:41 13° WSW visible
04 Jun 4.6 06:55:28 10° NNW 06:58:40 27° W 06:59:54 22° WSW visible
05 Jun 3.8 06:39:28 10° N 06:43:03 50° W 06:44:06 37° SW visible
06 Jun 3.6 06:23:46 10° NNE 06:27:27 85° E 06:28:18 52° S visible
